www.pogodaiklimat.ru
ПОГОДА в Кызыл-Равате

Архив погоды в Кызыл-Равате (Бухарская область, Узбекистан)

Время
и дата
03:30 17.04
03:40 17.04
03:50 17.04
04:00 17.04
04:10 17.04
04:20 17.04
04:30 17.04
04:40 17.04
04:50 17.04
05:00 17.04
05:10 17.04
05:20 17.04
05:30 17.04
05:40 17.04
05:50 17.04
06:00 17.04
06:10 17.04
06:20 17.04
06:30 17.04
06:40 17.04
06:50 17.04
07:00 17.04
07:10 17.04
07:20 17.04
08:30 17.04
08:50 17.04
10:40 17.04
16:20 17.04
16:40 17.04
16:50 17.04
17:00 17.04
17:10 17.04
17:20 17.04
17:30 17.04
17:40 17.04
17:50 17.04
18:00 17.04
18:10 17.04
18:20 17.04
18:30 17.04
18:40 17.04
18:50 17.04
19:00 17.04
19:10 17.04
19:20 17.04
19:30 17.04
19:40 17.04
20:00 17.04
20:10 17.04
20:20 17.04
20:30 17.04
20:40 17.04
20:50 17.04
21:00 17.04
21:10 17.04
21:20 17.04
21:30 17.04
21:40 17.04
21:50 17.04
22:00 17.04
22:10 17.04
22:20 17.04
22:30 17.04
22:40 17.04
22:50 17.04
23:00 17.04
23:10 17.04
23:20 17.04
23:40 17.04
23:50 17.04
00:00 18.04
00:10 18.04
00:50 18.04
01:00 18.04
01:10 18.04
01:20 18.04
01:30 18.04
01:40 18.04
01:50 18.04
02:00 18.04
02:10 18.04
02:20 18.04
02:30 18.04
02:40 18.04
02:50 18.04
03:00 18.04
03:10 18.04
03:20 18.04
03:30 18.04
03:50 18.04
04:00 18.04
04:10 18.04
04:20 18.04
04:30 18.04
04:40 18.04
04:50 18.04
05:00 18.04
05:40 18.04
05:50 18.04
06:00 18.04
06:10 18.04
06:30 18.04
06:40 18.04
06:50 18.04
07:00 18.04
07:10 18.04
07:20 18.04
07:50 18.04
08:00 18.04
08:10 18.04
08:20 18.04
10:50 18.04
11:30 18.04
12:20 20.04
12:40 20.04
13:00 20.04
13:10 20.04
13:20 20.04
13:30 20.04
13:40 20.04
13:50 20.04
14:00 20.04
14:20 20.04
14:30 20.04
14:40 20.04
14:50 20.04
15:10 20.04
15:20 20.04
15:40 20.04
16:00 20.04
16:10 20.04
16:20 20.04
16:30 20.04
16:50 20.04
17:00 20.04
17:20 20.04
17:40 20.04
18:00 20.04
18:10 20.04
18:30 20.04
18:40 20.04
18:50 20.04
19:00 20.04
19:10 20.04
Ветер
(напр.,м/с)
Видимость Явления Солнечная радиация
(Вт/м2)
Т
(С)
Тd
(С)
f
(%)
Тe
(С)
Тes
(С)
Комфортность P
(гПа)
Po
(гПа)
Тmin
(С)
Tmax
(С)
R
(мм)
ЮВ 2.5
{3.1}
+15.0 +10.2 73 +15 +15 1027.0 1001.5 +15.1 +15.0
В 2.5
{3.2}
+14.9 +10.3 74 +14 +14 1027.0 1001.5 +15.0 +14.9
ЮВ 2.3
{3.0}
+14.1 +10.7 80 +13 +13 1026.9 1001.4 +14.9 +14.0
В 2.4
{2.8}
+14.5 +10.8 78 +14 +14 1026.9 1001.4 +14.5 +14.1
В 2.2
{2.9}
+14.5 +10.4 76 +14 +14 1026.9 1001.4 +14.7 +14.5
В 2.5
{3.3}
+14.6 +10.7 77 +14 +14 1026.9 1001.4 +14.6 +14.4
В 2.5
{3.4}
+14.6 +10.5 77 +14 +14 1026.9 1001.4 +14.6 +14.4
В 2.4
{3.3}
+14.6 +11.0 79 +14 +14 1027.0 1001.5 +14.6 +14.4
В 2.9
{4.1}
+14.4 +10.6 78 +14 +14 1027.0 1001.5 +14.7 +14.4
В 2.5
{3.4}
+14.2 +11.1 82 +13 +13 1026.9 1001.4 +14.4 +14.2
В 2.8
{4.0}
+14.3 +11.1 81 +13 +13 1026.8 1001.3 +14.3 +14.2
В 2.6
{3.8}
+14.1 +11.5 84 +13 +13 1026.9 1001.4 +14.3 +14.1
В 2.8
{4.0}
+14.2 +11.5 84 +13 +13 1026.8 1001.3 +14.2 +14.1
В 2.4
{3.8}
+14.2 +11.6 84 +13 +13 1026.9 1001.4 +14.2 +14.2
В 2.1
{3.0}
+13.8 +11.9 88 +13 +13 1026.9 1001.4 +14.2 +13.8
В 2.2
{3.6}
+14.0 +11.9 87 +13 +13 1027.0 1001.5 +14.1 +13.8
В 2.6
{4.2}
+14.1 +12.0 87 +13 +13 1027.0 1001.5 +14.1 +13.9
В 3.8
{5.2}
+13.4 +11.8 90 +12 +12 1027.0 1001.5 +14.1 +13.4
В 4.2
{5.4}
+13.3 +11.8 91 +11 +11 1027.1 1001.6 +13.4 +13.3
СВ 4.4
{5.4}
+13.3 +11.9 91 +11 +11 1027.2 1001.7 +13.3 +13.3
В 4.2
{5.8}
+13.8 +11.9 88 +12 +12 1027.2 1001.7 +13.8 +13.3
В 3.1
{5.0}
+14.4 +11.6 84 +13 +13 1027.3 1001.8 +14.4 +13.8
СВ 2.3
{3.3}
+14.6 +11.5 82 +14 +14 1027.4 1001.9 +14.6 +14.4
СВ 2.4
{4.3}
+15.0 +11.2 78 +15 +15 1027.4 1001.9 +15.1 +14.6
В 2.4
{3.7}
+18.8 +9.8 56 +20 +20 1027.7 1002.2 +18.8 +18.4
СВ 3.1
{4.6}
+19.5 +9.5 52 +21 +21 комфорт 1027.6 1002.1 +19.5 +19.3
СВ 4.5
{7.4}
+25.3 +6.1 29 +25 +25 комфорт 1027.1 1001.6 +25.5 +25.0
СВ 6.6
{11.3}
+29.2 +1.1 16 +27 +27 жарко 1022.9 997.5 +29.4 +29.1
СВ 3.8
{6.9}
+29.4 +1.3 16 +27 +27 жарко 1022.9 997.5 +29.5 +29.2
СВ 5.7
{8.9}
+29.2 +1.0 16 +27 +27 жарко 1022.8 997.4 +29.4 +29.2
СВ 4.9
{8.9}
+29.5 +0.9 16 +27 +27 жарко 1022.7 997.3 +29.5 +29.0
СВ 5.6
{10.7}
+28.7 +0.9 17 +26 +26 жарко 1022.7 997.3 +29.5 +28.7
СВ 4.8
{9.2}
+29.2 +0.9 16 +27 +27 жарко 1022.6 997.2 +29.5 +28.7
СВ 5.9
{10.0}
+28.9 +0.9 16 +26 +26 жарко 1022.6 997.2 +29.2 +28.9
СВ 5.8
{9.8}
+29.1 +0.9 16 +27 +27 жарко 1022.6 997.2 +29.1 +28.8
СВ 6.6
{10.5}
+28.9 +1.1 17 +27 +27 жарко 1022.5 997.1 +29.1 +28.8
СВ 5.7
{9.3}
+28.7 +1.4 17 +26 +26 жарко 1022.4 997.0 +28.9 +28.6
СВ 6.2
{10.0}
+28.7 +1.3 17 +26 +26 жарко 1022.3 996.9 +28.8 +28.6
СВ 6.6
{9.4}
+28.5 +1.4 17 +26 +26 жарко 1022.4 997.0 +28.7 +28.5
СВ 6.0
{10.3}
+28.5 +1.4 17 +26 +26 жарко 1022.4 997.0 +28.8 +28.5
СВ 5.1
{7.8}
+28.3 +1.3 17 +26 +26 жарко 1022.4 997.0 +28.5 +28.3
СВ 5.6
{9.1}
+28.2 +0.9 17 +26 +26 жарко 1022.4 997.0 +28.4 +28.2
СВ 5.3
{7.9}
+27.9 +0.9 17 +26 +26 жарко 1022.3 996.9 +28.2 +27.9
СВ 6.5
{9.7}
+27.7 +0.9 18 +26 +26 жарко 1022.4 997.0 +27.9 +27.7
СВ 5.6
{8.9}
+27.5 +0.8 18 +25 +25 комфорт 1022.5 997.1 +27.7 +27.5
СВ 4.3
{7.1}
+27.3 +0.7 18 +25 +25 комфорт 1022.5 997.1 +27.5 +27.4
СВ 4.6
{8.0}
+27.1 +0.6 18 +25 +25 комфорт 1022.6 997.2 +27.3 +27.1
СВ 5.0
{7.6}
+26.6 +0.4 18 +25 +25 комфорт 1022.8 997.4 +26.9 +26.6
СВ 4.9
{7.2}
+26.4 +0.5 18 +25 +25 комфорт 1022.9 997.5 +26.6 +26.4
СВ 4.5
{6.6}
+26.1 +0.5 19 +24 +24 комфорт 1023.0 997.6 +26.4 +26.1
СВ 4.1
{5.6}
+25.9 +0.5 19 +24 +24 комфорт 1023.1 997.7 +26.1 +25.9
СВ 3.6
{5.5}
+25.6 +0.6 19 +24 +24 комфорт 1023.2 997.8 +25.9 +25.6
СВ 3.7
{5.3}
+25.3 +0.6 20 +24 +24 комфорт 1023.2 997.8 +25.6 +25.3
В 3.2
{4.8}
+25.0 +0.7 20 +24 +24 комфорт 1023.4 998.0 +25.3 +25.0
СВ 3.0
{4.6}
+24.7 +0.7 21 +23 +23 комфорт 1023.4 998.0 +25.0 +24.7
СВ 3.3
{5.4}
+24.8 +0.6 20 +23 +23 комфорт 1023.4 998.0 +24.8 +24.7
СВ 3.4
{5.1}
+24.5 +0.7 21 +23 +23 комфорт 1023.5 998.1 +24.8 +24.5
СВ 3.8
{5.7}
+24.5 +0.6 21 +23 +23 комфорт 1023.4 998.0 +24.5 +24.4
СВ 3.3
{4.5}
+24.1 +0.7 21 +23 +23 комфорт 1023.5 998.1 +24.5 +24.1
СВ 3.3
{4.5}
+23.6 +0.7 22 +23 +23 комфорт 1023.5 998.1 +24.1 +23.6
СВ 3.3
{3.9}
+22.9 +0.8 23 +22 +22 комфорт 1023.5 998.1 +23.6 +22.9
СВ 3.3
{4.1}
+22.4 +0.8 24 +22 +22 комфорт 1023.4 998.0 +22.9 +22.4
СВ 3.3
{4.2}
+22.0 +0.8 25 +22 +22 комфорт 1023.3 997.9 +22.4 +21.9
СВ 3.7
{5.0}
+22.0 +0.8 24 +21 +21 комфорт 1023.3 997.9 +22.2 +22.0
СВ 3.3
{4.4}
+22.3 +1.0 24 +22 +22 комфорт 1023.3 997.9 +22.3 +21.9
СВ 3.4
{4.4}
+22.0 +1.1 25 +22 +22 комфорт 1023.3 997.9 +22.4 +22.0
СВ 3.4
{4.7}
+22.1 +1.1 25 +22 +22 комфорт 1023.2 997.8 +22.1 +21.9
СВ 3.4
{4.5}
+21.5 +1.2 26 +21 +21 комфорт 1023.1 997.7 +22.2 +21.5
СВ 3.4
{4.5}
+20.5 +1.1 27 +21 +21 комфорт 1022.9 997.5 +20.8 +20.5
СВ 3.2
{3.7}
+20.0 +1.1 28 +20 +20 1022.8 997.4 +20.5 +20.0
СВ 3.4
{4.5}
+20.3 +1.1 28 +21 +21 комфорт 1022.7 997.3 +20.2 +19.9
СВ 3.3
{5.2}
+21.1 +1.1 26 +21 +21 комфорт 1022.7 997.3 +21.1 +20.3
СВ 3.3
{3.8}
+19.1 +1.3 30 +19 +19 1022.5 997.1 +19.8 +19.1
СВ 3.5
{4.1}
+18.6 +1.3 31 +19 +19 1022.5 997.1 +19.1 +18.6
СВ 3.3
{4.1}
+18.3 +1.4 32 +18 +18 1022.4 997.0 +18.6 +18.4
СВ 3.1
{4.0}
+18.0 +1.5 33 +18 +18 1022.4 997.0 +18.4 +18.0
СВ 3.2
{4.2}
+17.9 +1.5 33 +18 +18 1022.4 997.0 +18.0 +17.9
С 2.9
{4.1}
+17.6 +1.5 34 +18 +18 1022.4 997.0 +17.9 +17.6
С 3.0
{4.1}
+17.3 +1.5 35 +17 +17 1022.3 996.9 +17.6 +17.3
С 3.2
{4.0}
+17.1 +1.5 35 +17 +17 1022.2 996.8 +17.3 +17.1
СВ 3.2
{4.2}
+16.9 +1.5 36 +17 +17 1022.1 996.7 +17.1 +16.9
СВ 3.6
{4.6}
+16.6 +1.5 36 +16 +16 1022.1 996.7 +16.9 +16.6
СВ 3.5
{4.4}
+16.5 +1.5 36 +16 +16 1022.0 996.6 +16.6 +16.5
СВ 3.2
{4.0}
+16.3 +1.6 37 +16 +16 1022.0 996.6 +16.5 +16.3
СВ 2.9
{3.7}
+16.2 +1.6 37 +16 +16 1021.9 996.5 +16.3 +16.2
СВ 3.1
{3.9}
+15.9 +1.6 38 +16 +16 1021.9 996.5 +16.2 +15.9
СВ 2.9
{3.6}
+15.9 +1.6 38 +16 +16 1021.9 996.5 +15.9 +15.9
СВ 3.1
{3.8}
+15.5 +1.6 39 +15 +15 1021.9 996.5 +15.9 +15.5
СВ 3.4
{4.1}
+15.5 +1.6 39 +15 +15 1021.9 996.5 +15.5 +15.5
С 3.6
{4.7}
+15.8 +1.5 38 +15 +15 1021.7 996.3 +15.8 +15.7
С 3.4
{4.7}
+15.6 +1.6 39 +15 +15 1021.7 996.3 +15.8 +15.6
С 3.3
{4.1}
+15.3 +1.5 39 +15 +15 1021.7 996.3 +15.6 +15.3
С 3.5
{4.4}
+14.8 +1.5 40 +14 +14 1021.6 996.2 +15.3 +14.8
С 3.7
{4.4}
+14.4 +1.5 42 +13 +13 1021.5 996.1 +14.8 +14.4
С 4.1
{5.0}
+14.3 +1.5 42 +13 +13 1021.5 996.1 +14.4 +14.3
С 3.9
{4.6}
+14.2 +1.6 42 +13 +13 1021.5 996.1 +14.3 +14.2
С 3.8
{4.6}
+14.2 +1.7 42 +13 +13 1021.6 996.2 +14.3 +14.2
С 3.8
{4.8}
+14.3 +1.9 43 +13 +13 1021.8 996.4 +14.3 +14.1
С 4.3
{6.0}
+14.6 +1.9 42 +14 +14 1021.8 996.4 +14.6 +14.3
С 4.9
{6.4}
+14.5 +1.9 42 +13 +13 1021.9 996.5 +14.6 +14.5
С 5.1
{6.4}
+14.5 +1.9 42 +13 +13 1021.9 996.5 +14.5 +14.4
С 4.5
{6.4}
+14.9 +2.1 42 +14 +14 1022.0 996.6 +14.9 +14.7
С 5.1
{6.7}
+15.4 +2.3 41 +14 +14 1022.0 996.6 +15.3 +14.9
С 5.3
{6.7}
+15.8 +2.2 40 +15 +15 1022.1 996.7 +15.8 +15.4
С 5.1
{6.7}
+16.3 +2.5 39 +15 +15 1022.2 996.8 +16.3 +15.8
С 4.8
{6.6}
+17.0 +2.7 38 +16 +16 1022.2 996.8 +17.0 +16.3
С 5.3
{7.4}
+17.5 +2.6 37 +17 +17 1022.2 996.8 +17.5 +17.0
С 5.0
{6.8}
+18.6 +2.6 35 +18 +18 1022.2 996.8 +18.5 +18.3
С 5.0
{7.3}
+19.0 +2.7 34 +19 +19 1022.2 996.8 +19.0 +18.5
СВ 5.7
{7.8}
+19.7 +2.8 33 +20 +20 1022.2 996.8 +19.7 +19.0
СВ 5.9
{9.3}
+20.3 +3.1 32 +20 +20 1022.2 996.8 +20.3 +19.7
СВ 10.3
{15.3}
+26.6 +1.2 19 +25 +25 комфорт 1021.0 995.7 +26.7 +26.2
СВ 8.8
{15.0}
+27.7 +0.3 17 +26 +26 жарко 1020.5 995.2 +28.1 +27.3
СВ 3.9
{8.4}
+30.7 +2.4 16 +28 +28 жарко 1013.9 988.7 +31.0 +30.6
В 3.2
{6.0}
+31.4 +2.0 15 +29 +29 жарко 1013.7 988.5 +31.3 +30.5
СВ 4.3
{8.5}
+31.1 +0.4 14 +28 +28 жарко 1013.6 988.4 +31.5 +31.0
СВ 3.7
{7.9}
+31.4 +1.0 14 +28 +28 жарко 1013.5 988.3 +31.5 +31.0
СВ 4.4
{8.9}
+31.5 +0.4 14 +29 +29 жарко 1013.4 988.2 +31.9 +31.3
С 5.8
{8.9}
+31.6 -0.1 13 +28 +28 жарко 1013.4 988.2 +31.9 +31.2
С 5.8
{10.1}
+30.9 -0.5 13 +28 +28 жарко 1013.4 988.2 +31.7 +31.0
СЗ 4.2
{9.0}
+31.5 -0.6 13 +28 +28 жарко 1013.3 988.1 +31.9 +30.9
С 4.4
{9.7}
+31.7 -0.6 13 +29 +29 жарко 1013.3 988.1 +32.2 +31.5
СВ 2.9
{5.8}
+32.2 -1.5 11 +29 +29 жарко 1013.3 988.1 +32.1 +31.8
СВ 3.3
{12.1}
+32.8 -0.9 12 +29 +29 жарко 1013.0 987.8 +33.0 +32.2
СВ 3.6
{8.4}
+32.6 -0.8 12 +29 +29 жарко 1013.0 987.8 +32.8 +32.0
В 3.4
{5.7}
+32.6 -1.3 11 +29 +29 жарко 1013.0 987.8 +33.0 +32.4
СЗ 3.2
{5.5}
+32.3 -0.8 12 +29 +29 жарко 1012.9 987.7 +32.3 +31.9
С 3.6
{6.7}
+32.2 -1.0 12 +29 +29 жарко 1012.8 987.6 +32.6 +32.3
СЗ 3.2
{5.3}
+32.3 -0.6 12 +29 +29 жарко 1012.8 987.6 +32.4 +32.0
СЗ 4.4
{6.8}
+32.1 -0.8 12 +29 +29 жарко 1012.8 987.6 +32.3 +31.8
С 3.3
{6.2}
+32.3 -0.9 12 +29 +29 жарко 1012.8 987.6 +32.6 +32.0
С 4.1
{6.9}
+32.0 -0.9 12 +29 +29 жарко 1012.8 987.6 +32.5 +31.9
С 3.6
{7.0}
+32.3 -1.1 12 +29 +29 жарко 1012.8 987.6 +32.4 +31.9
С 3.8
{6.6}
+32.3 -1.5 11 +29 +29 жарко 1012.8 987.6 +32.3 +31.9
С 3.6
{5.9}
+32.5 -1.5 11 +29 +29 жарко 1012.9 987.7 +32.5 +32.2
СЗ 1.6
{3.4}
+33.0 -1.6 11 +29 +29 жарко 1012.9 987.7 +33.0 +32.5
СЗ 2.6
{4.8}
+32.2 -1.7 11 +29 +29 жарко 1012.8 987.6 +32.6 +32.2
СЗ 3.6
{6.6}
+31.9 -0.6 12 +29 +29 жарко 1012.8 987.6 +32.0 +31.7
СЗ 3.0
{5.1}
+31.7 -1.3 12 +28 +28 жарко 1012.8 987.6 +31.9 +31.7
СЗ 3.9
{5.9}
+31.1 -0.5 13 +28 +28 жарко 1012.9 987.7 +31.6 +31.2
СЗ 3.8
{6.0}
+31.1 -0.5 13 +28 +28 жарко 1012.9 987.7 +31.1 +31.0
СЗ 4.2
{6.1}
+30.7 -0.6 13 +28 +28 жарко 1012.9 987.7 +31.1 +30.7
СЗ 3.8
{5.8}
+30.6 -0.6 13 +27 +27 жарко 1013.0 987.8 +30.7 +30.6
СЗ 4.0
{5.6}
+30.2 -0.4 14 +27 +27 жарко 1013.0 987.8 +30.6 +30.2
Местоположение метеостанции Кызыл-Рават (Бухарская область, Узбекистан): широта 40.55 долгота 62.19 высота над уровнем моря 0 м.
В архиве по умолчанию представлена погода в Кызыл-Равате за последние 1-2 суток. Обновление информации о фактической погоде в базе происходит ежечасно! Архивные данные за месяц целиком и за предыдущие месяцы Вы можете получить, выбрав интересующий диапазон дат из раскрывающегося списка и нажав кнопку "Ввод!".
*Определитесь, кто Вы:
Внимание! Время в таблицах - местное (без учета летнего времени). Для получения всемирного времени необходимо вычесть поправку, которая равна 5 ч.
Смотрите также архив погоды на ближайших метеорологических станциях:
Партнеры нашего сайта:      
Пояснения к столбцам:
  • Ветер - указаны скорость ветра в м/с - средняя за 10 мин, порывы в срок и между сроками (в фигурных скобках) и направление, откуда дует ветер: С - северный,
  • СВ - северо-восточный, В - восточный, ЮВ - юго-восточный, Ю - южный, ЮЗ - юго-западный, З - западный, СЗ - северо-западный.
  • Видимость - горизонтальная дальность видимости в метрах или километрах. При видимости от 1 до 10 км при отсутствии осадков обычно наблюдается дымка, при ухудшении видимости до 1 км и менее - туман. В сухую погоду видимость может ухудшаться дымом, пылью или мглою.
  • Явления - указаны атмосферные явления, наблюдавшиеся в срок или в последний час перед сроком.
  • Солнечная радиация - мощность потока солнечного излучения на поверхность земли и предметов в Вт/м2.
  • T - Температура воздуха - температура, измеренная на высоте 2 м над землей.
  • Td - Температура точки росы - температура, при понижении до которой содержащийся в воздухе водяной пар достигнет насыщения.
  • f - Относительная влажность воздуха - влажноcть воздуха, измеренная на высоте 2 м над землей.
  • Te - Эффективная температура - температура, которую ощущает одетый по сезону человек в тени. Характеристика душности погоды. При расчете учитывается влияние влажности воздуха и скорости ветра на теплоощущения человека.
  • Tes - Эффективная температура на солнце - температура, которую ощущает человек, с поправкой на солнечный нагрев. Характеристика знойности погоды. Зависит от высоты солнца над горизонтом, облачности и скорости ветра. Ночью, в пасмурную погоду, а также при ветре 12 м/с и более поправка равна нулю.
  • P - Атмосферное давление - приведенное к уровню моря атмосферное давление.
  • Po - Атмосферное давление - измеренное на уровне метеостанции атмосферное давление.
  • Tmin - Минимальная температура - минимум температуры воздуха на высоте 2 м над землей.
  • Tmax - Максимальная температура - максимум температуры воздуха на высоте 2 м над землей.
  • R - Количество осадков - Количество выпавших осадков за период времени, мм. При наведении курсора мыши на число - период времени, за который выпало указанное количество осадков.